Probability
87 90 100 100 100 100 100 100 97 97 97 97 100 100 100 100 97 97 97 97 97 97 97 94 97 97 94 94 90 97 97 94 97 97 97 97 97 94 97 90 90 94 97
90 97 100 100 100 100 100 100 100 100 100 100 100 100 100 100 100 97 97 94 100 97 97 97 97 97 94 94 94 97 97 100 97 97 90 90 94 94 94 94 94 97 97
87 97 100 100 100 100 100 100 100 100 100 100 100 100 100 100 100 97 97 97 97 97 97 97 97 94 94 90 90 97 97 97 100 100 94 61 87 94 94 94 97 97 97
94 94 97 100 100 100 100 100 100 100 100 100 100 100 100 100 100 97 97 97 97 97 90 94 90 94 97 94 90 87 90 94 90 94 87 55 71 97 97 100 100 97 97
94 94 100 100 100 100 100 100 100 100 100 100 100 100 100 100 100 100 100 100 97 97 94 90 90 90 94 94 94 87 87 90 90 84 81 84 87 100 100 100 100 97 97
94 94 100 100 100 100 100 100 100 100 100 100 100 100 100 100 100 97 97 94 94 94 90 84 81 84 90 90 87 81 74 87 90 87 84 81 87 100 100 100 100 97 100
94 90 97 100 100 100 100 100 100 100 100 100 100 100 100 100 100 97 90 87 87 87 87 77 84 84 81 87 84 90 81 90 81 74 94 87 94 100 97 97 100 97 100
97 94 100 100 100 100 100 100 97 100 100 100 100 100 97 97 94 90 94 90 94 87 84 90 87 81 81 81 77 87 90 94 74 68 77 87 100 100 97 94 97 97 94
97 97 94 97 97 97 97 100 100 97 100 100 100 100 97 94 90 90 94 94 90 90 87 87 74 84 81 74 74 77 90 97 77 87 74 77 97 97 97 90 94 94 84
94 94 90 94 94 97 97 97 97 97 97 97 97 97 100 97 97 97 100 97 84 81 84 77 77 74 77 81 81 74 87 87 55 74 74 81 97 97 90 90 90 90 90
94 97 90 90 90 90 90 94 97 94 97 97 97 94 94 100 97 94 97 94 84 81 71 84 90 81 77 65 65 84 81 58 35 65 77 97 97 97 97 87 87 87 94
90 97 94 94 94 94 87 94 97 97 97 94 97 97 94 94 94 87 87 87 81 68 65 81 77 71 81 68 65 77 45 42 35 58 68 94 97 97 97 94 94 90 87
84 90 87 94 97 97 94 94 94 94 97 97 94 90 90 87 81 77 90 90 94 81 81 81 77 71 68 68 61 58 52 29 23 42 77 97 97 94 94 94 97 97 97
84 87 87 90 97 94 90 87 87 90 84 84 87 90 84 84 77 77 87 81 74 68 65 61 65 61 55 52 52 52 42 42 39 58 81 87 87 90 87 87 87 97 94
81 87 94 90 90 87 81 87 84 90 87 84 87 84 81 81 81 68 71 81 58 58 55 65 55 45 52 45 45 39 35 29 35 48 68 90 84 87 84 90 84 84 90
71 81 84 90 84 84 81 87 90 87 87 87 84 74 84 81 74 74 71 68 58 55 39 35 35 32 39 32 35 32 29 29 29 39 65 71 84 87 87 87 94 90 90
71 74 81 84 84 84 81 77 84 84 87 90 84 77 74 74 65 68 71 68 58 42 32 35 35 35 32 29 23 16 23 29 26 32 29 55 55 84 77 77 87 90 87
65 68 68 68 81 84 84 87 87 81 81 84 74 77 58 58 58 68 65 52 52 48 45 48 39 35 29 26 16 16 26 29 29 26 26 32 35 45 68 74 74 84 87
68 71 74 77 77 71 77 84 84 81 81 77 65 68 61 45 52 52 48 58 55 48 39 19 29 29 19 16 13 19 19 23 26 23 19 23 26 29 39 61 71 74 74
65 71 68 74 74 74 74 77 87 84 77 81 74 68 61 55 48 52 58 42 42 32 35 32 26 29 26 16 0 0 10 6 16 13 16 16 26 26 26 23 48 58 61
68 68 71 74 74 77 74 74 68 68 77 81 77 71 55 45 39 52 29 26 39 35 32 19 19 10 16 19 10 6 3 3 3 10 10 10 6 6 13 23 35 35 48
61 61 65 77 84 81 84 87 87 81 74 71 71 71 58 39 32 16 42 29 29 29 19 19 13 16 10 6 6 0 3 6 6 3 6 3 3 3 10 13 26 23 29
55 61 55 71 77 84 84 84 87 87 81 55 68 68 58 42 35 39 23 19 26 29 26 19 16 13 10 10 6 3 3 3 3 3 3 0 0 3 3 13 16 10 23
42 58 68 71 71 77 77 77 77 74 61 68 71 65 55 35 26 13 16 19 19 23 23 16 16 13 10 10 3 0 0 3 3 3 3 0 0 3 0 0 3 3 10
35 52 65 68 84 84 84 84 81 68 74 71 65 65 55 42 23 10 10 13 19 23 19 13 16 6 6 6 3 0 0 0 3 3 0 0 0 3 6 6 6 6 3
58 58 61 81 81 84 84 77 74 74 71 71 65 55 48 39 29 13 10 16 16 19 19 13 10 3 13 10 10 0 0 0 0 0 0 0 0 0 0 3 3 6 3
Height
5893 5893 5894 5894 5895 5895 5896 5896 5897 5897 5897 5897 5897 5897 5897 5897 5897 5897 5897 5897 5897 5897 5897 5897 5897 5897 5897 5897 5897 5897 5897 5897 5897 5897 5897 5897 5897 5897 5897 5898 5898 5899 5899
5892 5892 5893 5893 5894 5895 5896 5896 5897 5897 5897 5897 5897 5897 5897 5897 5897 5897 5898 5898 5898 5898 5898 5898 5897 5897 5897 5897 5897 5897 5898 5898 5898 5898 5898 5898 5898 5899 5899 5899 5900 5901 5901
5890 5891 5892 5893 5893 5894 5895 5896 5896 5896 5897 5897 5897 5897 5897 5897 5898 5898 5898 5898 5898 5898 5898 5898 5898 5898 5898 5898 5898 5898 5898 5898 5899 5899 5898 5899 5899 5900 5900 5901 5901 5902 5903
5889 5890 5890 5891 5892 5893 5894 5895 5896 5896 5896 5897 5897 5897 5897 5898 5898 5898 5898 5898 5898 5898 5898 5898 5898 5898 5898 5898 5898 5899 5899 5899 5899 5899 5899 5900 5900 5901 5901 5902 5902 5903 5904
5888 5888 5889 5890 5891 5892 5893 5894 5895 5896 5896 5897 5897 5897 5897 5898 5898 5898 5898 5898 5898 5898 5898 5898 5898 5898 5898 5898 5899 5899 5899 5899 5900 5900 5900 5900 5901 5902 5902 5903 5904 5904 5905
5886 5887 5887 5889 5890 5891 5892 5893 5894 5895 5896 5896 5897 5897 5897 5897 5898 5898 5898 5898 5898 5898 5898 5898 5898 5898 5898 5898 5899 5899 5899 5900 5900 5900 5900 5901 5901 5902 5903 5903 5904 5905 5906
5884 5885 5886 5887 5888 5890 5891 5892 5893 5894 5895 5896 5896 5896 5897 5897 5897 5898 5898 5898 5898 5898 5898 5898 5898 5898 5898 5898 5898 5899 5899 5900 5899 5900 5901 5901 5902 5902 5903 5904 5905 5906 5907
5881 5883 5884 5885 5887 5888 5889 5891 5892 5893 5894 5895 5895 5896 5896 5896 5897 5897 5897 5897 5897 5897 5897 5897 5898 5898 5898 5898 5898 5898 5898 5899 5899 5900 5901 5901 5902 5903 5903 5904 5905 5906 5907
5880 5881 5882 5883 5885 5886 5888 5889 5890 5891 5892 5893 5894 5894 5895 5895 5895 5896 5896 5896 5896 5896 5896 5896 5897 5897 5897 5897 5897 5897 5898 5898 5899 5900 5900 5901 5902 5903 5903 5904 5905 5906 5907
5877 5879 5880 5881 5883 5884 5886 5887 5888 5890 5891 5892 5893 5893 5894 5894 5894 5894 5895 5895 5895 5895 5895 5895 5896 5896 5896 5896 5896 5897 5897 5898 5898 5899 5899 5900 5901 5902 5903 5904 5905 5906 5907
5873 5876 5877 5879 5880 5882 5884 5885 5887 5888 5889 5890 5891 5891 5892 5892 5893 5893 5893 5894 5894 5894 5894 5894 5894 5895 5895 5895 5895 5896 5896 5897 5897 5897 5897 5899 5900 5901 5902 5903 5904 5905 5906
5870 5873 5874 5876 5877 5880 5881 5883 5884 5886 5887 5888 5889 5889 5890 5891 5891 5891 5892 5892 5892 5892 5892 5893 5893 5893 5894 5894 5894 5895 5896 5896 5896 5896 5897 5898 5899 5900 5901 5902 5903 5904 5905
5867 5869 5871 5871 5873 5877 5879 5880 5882 5883 5885 5886 5887 5888 5888 5889 5889 5890 5890 5890 5890 5890 5891 5891 5892 5892 5892 5893 5893 5894 5894 5893 5893 5895 5896 5897 5898 5898 5899 5901 5902 5903 5904
5861 5864 5866 5868 5871 5873 5875 5877 5879 5881 5882 5884 5885 5886 5886 5887 5887 5888 5888 5888 5889 5889 5889 5890 5890 5891 5891 5891 5892 5892 5893 5892 5892 5894 5895 5896 5896 5897 5898 5899 5900 5901 5902
5857 5860 5862 5864 5867 5870 5872 5874 5876 5879 5880 5882 5883 5884 5885 5885 5886 5886 5886 5887 5887 5887 5888 5888 5889 5889 5889 5890 5890 5891 5891 5891 5891 5893 5894 5894 5895 5895 5896 5897 5898 5899 5900
5853 5856 5859 5861 5864 5867 5869 5871 5874 5876 5878 5880 5882 5882 5883 5884 5884 5885 5885 5885 5886 5886 5886 5887 5887 5888 5888 5888 5889 5889 5890 5890 5890 5891 5892 5892 5892 5893 5894 5895 5896 5897 5897
5848 5852 5855 5858 5861 5864 5866 5869 5872 5874 5876 5878 5880 5880 5881 5882 5882 5883 5884 5884 5885 5885 5886 5886 5886 5886 5887 5887 5888 5888 5888 5889 5889 5889 5890 5889 5890 5891 5891 5892 5893 5894 5894
5845 5849 5852 5855 5859 5861 5864 5867 5870 5872 5874 5876 5878 5879 5880 5880 5881 5882 5882 5883 5883 5884 5885 5885 5886 5886 5886 5886 5887 5887 5887 5887 5887 5887 5887 5887 5887 5888 5889 5889 5890 5890 5891
5842 5845 5848 5852 5855 5858 5861 5865 5868 5870 5872 5874 5876 5877 5878 5879 5880 5880 5881 5882 5882 5883 5884 5884 5885 5885 5885 5885 5885 5886 5886 5885 5885 5885 5885 5885 5885 5885 5886 5886 5886 5887 5887
5839 5842 5845 5848 5852 5856 5859 5863 5866 5868 5871 5872 5874 5875 5877 5878 5879 5880 5880 5881 5882 5882 5883 5884 5884 5884 5884 5884 5884 5884 5884 5884 5883 5883 5883 5883 5882 5882 5883 5883 5883 5883 5883
5836 5840 5843 5846 5850 5854 5857 5861 5864 5867 5869 5871 5872 5874 5875 5877 5878 5879 5880 5880 5881 5882 5882 5883 5883 5883 5883 5883 5883 5883 5882 5882 5881 5881 5880 5880 5880 5880 5880 5880 5880 5879 5879
5835 5838 5841 5845 5849 5853 5856 5859 5862 5865 5867 5869 5871 5873 5874 5876 5877 5878 5879 5880 5880 5881 5882 5882 5882 5882 5882 5882 5882 5881 5881 5881 5880 5879 5878 5878 5877 5877 5876 5876 5876 5876 5876
5836 5838 5841 5845 5848 5852 5855 5858 5861 5864 5866 5868 5870 5872 5874 5875 5876 5878 5879 5879 5880 5881 5881 5881 5881 5881 5881 5881 5880 5880 5879 5879 5878 5877 5876 5876 5875 5874 5873 5873 5872 5872 5871
5836 5838 5841 5844 5848 5851 5855 5858 5861 5863 5865 5868 5869 5871 5873 5874 5876 5877 5878 5879 5879 5880 5880 5880 5880 5880 5880 5880 5879 5878 5878 5877 5876 5875 5875 5873 5872 5871 5870 5869 5868 5868 5867
5837 5839 5841 5845 5848 5851 5854 5857 5860 5862 5865 5867 5869 5871 5872 5874 5875 5876 5877 5878 5878 5879 5879 5879 5879 5879 5879 5878 5878 5877 5876 5875 5874 5873 5872 5871 5870 5868 5867 5865 5864 5863 5863
5838 5840 5842 5845 5848 5851 5854 5856 5859 5862 5864 5866 5868 5870 5872 5873 5875 5876 5876 5877 5877 5878 5878 5878 5878 5877 5877 5877 5876 5875 5874 5873 5872 5871 5869 5868 5867 5865 5864 5862 5860 5859 5858
Wind_Speed
5 6 5 5 5 4 3 3 3 2 2 2 3 3 4 4 4 4 4 5 5 5 5 5 5 5 5 5 5 5 5 5 5 5 5 5 6 6 7 8 9 9 9
6 7 6 6 6 5 5 4 4 3 3 3 3 3 3 4 4 3 3 3 3 4 4 4 4 4 4 4 4 4 4 4 4 4 4 4 5 6 6 7 8 9 9
7 7 7 7 6 6 6 5 5 5 4 4 4 3 3 3 3 3 2 2 2 2 2 2 3 2 3 3 3 3 3 3 3 3 3 3 3 4 5 6 7 7 7
8 8 8 8 7 7 6 6 6 6 5 5 4 4 4 3 3 2 2 1 1 1 1 1 1 1 1 1 1 1 1 2 2 2 2 3 3 3 3 4 6 6 5
10 10 10 10 9 8 7 6 6 6 6 6 5 5 4 4 3 3 2 1 1 1 1 1 1 1 1 1 0 1 1 1 1 0 1 1 1 2 3 3 4 4 4
11 11 11 11 9 8 8 7 7 7 7 6 6 6 5 5 4 3 3 2 2 2 2 2 2 2 2 2 2 2 1 1 1 1 1 0 0 1 1 2 3 3 3
12 12 12 11 10 9 9 9 9 8 8 7 7 7 6 6 5 4 4 4 4 4 4 3 3 4 4 4 3 3 3 2 2 2 2 2 1 1 1 1 2 3 2
13 13 14 13 12 11 10 10 10 10 9 9 9 8 7 7 6 6 5 5 5 5 5 5 5 5 5 5 5 5 5 4 4 4 4 4 3 3 2 2 3 2 2
16 15 16 14 13 12 12 12 11 11 11 11 10 9 8 8 8 7 7 7 7 7 6 6 6 6 6 6 6 6 6 5 5 4 5 5 5 4 4 3 4 4 3
16 16 16 16 14 14 13 13 12 12 12 12 12 11 10 9 9 8 8 8 8 8 7 7 7 7 7 7 7 7 7 6 6 6 6 6 6 6 6 5 6 6 5
16 17 17 16 15 15 15 14 13 13 13 13 13 12 11 10 9 9 9 9 9 9 9 8 8 9 8 8 7 7 7 6 5 7 6 6 7 7 7 7 7 7 7
18 18 18 18 17 16 16 16 15 15 14 13 13 12 10 10 9 9 9 9 9 9 10 9 9 9 9 9 9 8 8 7 7 8 7 7 7 8 8 9 9 9 8
21 19 19 19 18 17 17 17 16 15 14 12 12 12 10 10 9 9 9 8 9 9 9 9 9 9 8 8 9 9 9 9 7 8 9 9 8 9 9 9 10 11 11
22 21 21 20 19 18 18 17 16 15 14 13 11 11 11 11 10 9 9 9 9 8 8 8 8 8 8 8 9 9 10 10 9 8 9 10 10 9 10 11 11 11 12
24 23 23 22 20 19 18 18 16 15 14 13 11 11 11 10 10 9 8 7 7 7 7 8 6 6 7 7 8 8 9 10 11 9 10 11 11 11 11 12 12 12 13
25 23 21 21 21 20 19 17 16 15 13 12 12 11 9 9 9 7 6 6 5 5 5 4 5 6 6 6 6 7 8 9 10 11 11 12 13 13 13 13 13 14 14
23 23 21 21 20 19 18 17 15 14 13 12 12 11 9 8 6 5 4 4 4 4 4 4 4 4 4 4 4 5 6 7 9 10 11 12 12 13 13 14 14 15 16
21 22 22 21 21 19 18 17 15 14 12 11 11 10 8 7 5 4 4 4 3 3 2 3 3 3 4 4 4 5 6 7 9 10 11 12 12 14 14 15 15 16 17
19 20 21 21 21 20 18 16 14 13 11 11 10 9 8 6 5 4 4 3 2 2 2 2 2 3 4 4 5 6 7 7 9 10 10 11 12 13 14 15 16 17 17
17 17 19 20 20 19 17 15 14 12 11 11 10 8 7 6 5 5 4 3 2 2 2 2 3 3 4 5 6 7 7 8 9 9 10 11 12 13 14 15 16 16 17
12 13 16 17 17 16 15 14 13 12 11 10 9 8 7 6 6 5 3 1 0 1 2 2 3 4 5 6 6 7 8 8 9 10 10 11 12 13 14 14 15 16 17
11 13 14 15 16 15 14 13 12 11 10 9 8 8 7 6 5 3 2 1 0 1 2 3 3 4 5 6 7 7 8 8 9 10 11 11 12 13 14 15 16 17 18
9 12 13 13 14 14 14 12 11 10 8 8 7 8 7 5 4 4 3 1 0 1 2 3 4 5 6 7 7 8 9 9 9 10 11 12 13 14 15 16 16 17 18
7 11 13 13 14 14 13 12 10 8 8 8 7 7 7 5 5 4 2 1 0 2 3 3 4 6 7 8 8 9 10 11 11 11 12 13 14 15 15 16 17 17 18
6 9 11 13 13 13 12 11 10 9 9 8 8 7 7 6 6 4 2 1 1 2 3 4 5 7 7 8 9 10 11 12 12 13 13 14 14 15 16 17 18 18 19
5 7 9 11 12 12 12 12 12 11 10 9 8 7 7 6 5 4 2 1 2 3 4 5 6 7 8 9 10 11 12 13 14 15 15 16 16 16 17 18 19 19 20
Wind_Direction
238 223 217 207 205 211 220 230 239 235 219 195 172 156 144 135 127 119 111 102 95 91 86 83 78 74 70 69 66 65 66 69 70 70 74 79 82 87 96 101 104 103 103
246 230 222 214 213 220 230 239 241 242 234 220 200 185 167 154 145 134 124 111 100 94 89 83 78 72 68 64 62 63 65 67 65 66 72 79 82 87 101 109 107 105 100
254 238 228 220 219 224 234 241 242 241 236 230 218 206 192 179 167 153 144 130 113 101 93 88 81 75 71 64 59 61 64 65 65 63 69 79 87 98 108 108 107 101 99
257 245 237 230 229 231 236 243 240 239 236 234 229 222 213 204 192 178 169 170 156 131 113 106 94 78 73 62 52 48 50 59 63 57 61 70 87 105 113 111 108 104 100
255 249 242 237 234 233 236 242 239 238 236 237 238 234 230 224 218 213 209 214 224 224 224 230 233 252 271 295 313 337 359 17 38 352 22 48 75 111 121 129 118 112 104
254 251 243 236 231 232 237 241 237 238 240 242 243 240 239 238 236 238 242 247 261 262 261 262 260 257 262 269 268 268 287 302 280 254 278 265 163 107 115 146 130 127 117
250 248 242 236 234 235 237 240 241 240 240 244 246 246 244 245 248 251 257 261 265 269 269 270 266 261 260 264 262 257 260 264 275 276 263 242 235 226 215 213 173 152 142
249 247 242 239 237 235 236 242 244 242 240 245 249 249 247 248 251 255 260 267 269 269 269 268 269 263 259 258 257 258 261 261 258 263 263 251 243 240 240 243 200 191 187
251 248 242 238 238 239 238 242 246 242 240 245 248 250 249 249 251 256 261 265 267 267 268 265 263 261 258 258 258 260 265 264 259 261 259 251 244 242 245 250 229 226 224
245 245 243 241 240 239 239 241 244 243 243 246 248 252 251 253 254 259 262 263 263 262 264 266 264 263 259 259 259 260 264 264 257 256 257 253 246 246 247 246 241 242 240
246 247 245 243 242 240 240 240 244 246 248 249 249 253 253 251 253 258 265 263 262 261 263 265 266 261 257 259 258 258 263 264 262 259 258 259 251 250 251 248 244 246 249
249 245 246 242 243 243 242 241 243 246 248 249 248 249 249 252 256 259 266 267 267 266 267 267 267 264 258 258 256 256 260 266 261 263 262 265 260 257 257 253 249 248 251
245 241 244 242 241 242 241 241 242 244 244 244 246 247 251 254 259 264 270 269 272 268 265 266 267 264 261 261 258 256 259 263 256 257 261 265 265 262 259 259 257 254 253
238 238 239 241 241 242 241 240 241 243 241 241 246 248 252 255 259 264 269 272 273 268 263 264 265 263 262 258 259 260 260 262 260 262 266 267 269 266 263 262 263 260 255
240 240 237 240 238 242 245 244 236 240 241 244 251 254 258 258 263 268 269 271 275 273 266 265 270 270 267 260 259 263 260 263 267 264 268 270 269 268 266 264 263 263 262
239 239 236 235 238 242 244 239 235 236 236 242 251 255 258 260 266 268 267 262 268 274 275 276 273 278 281 276 268 270 271 272 271 269 270 271 269 267 266 266 267 266 265
234 233 232 234 236 239 239 235 234 232 237 242 250 253 257 258 264 259 261 263 272 272 272 279 280 286 294 286 278 283 285 282 279 280 280 277 276 272 270 269 269 269 268
232 232 231 230 233 236 235 234 231 236 235 243 246 248 253 256 253 247 251 263 271 264 276 292 297 305 306 302 297 294 294 289 286 285 285 284 281 275 274 274 273 273 272
233 232 230 231 232 232 232 229 228 232 237 239 243 241 245 246 240 239 241 245 259 267 280 306 319 323 319 312 309 308 304 298 293 290 290 289 286 282 279 278 278 277 275
233 228 227 229 230 229 226 222 224 228 233 236 240 233 232 230 228 229 236 242 269 294 311 323 330 338 339 332 323 317 314 308 303 298 296 295 293 290 287 285 283 281 278
229 224 220 219 219 216 210 214 221 227 228 230 229 225 219 219 217 218 219 241 296 338 345 353 345 343 339 335 329 325 322 318 313 307 304 301 297 294 292 291 286 284 283
222 213 209 209 206 204 207 214 218 220 221 224 220 213 206 210 211 197 180 166 107 350 349 343 343 344 342 339 335 333 332 329 324 320 315 310 305 301 298 295 290 288 285
205 198 195 194 200 204 207 210 213 218 212 213 209 202 203 204 193 186 185 187 253 325 329 333 342 346 346 345 342 341 340 337 331 326 320 315 311 308 304 299 295 292 290
199 196 194 196 202 205 207 208 213 211 205 204 202 195 195 191 185 182 184 185 283 323 323 323 332 339 341 342 341 340 338 335 334 330 325 321 317 312 308 305 301 297 294
194 197 196 198 202 205 206 206 207 208 206 200 195 192 194 193 188 182 180 196 313 318 318 322 327 333 336 337 339 340 338 335 333 329 327 323 320 316 312 308 304 302 298
180 185 190 197 202 204 206 208 211 212 207 200 196 196 195 193 190 191 204 272 312 314 319 324 328 331 333 334 336 336 335 333 332 330 327 325 322 319 315 311 307 304 300